{"data":{"norad_id":56294,"epoch":"2026-05-25T00:57:00.620064Z","epoch_age_seconds":78457,"freshness":"FRESH","line1":"1 56294U 23056J   26145.03959051 -.00005122  00000+0 -17664-3 0  9990","line2":"2 56294  43.0026 137.9258 0001690 289.2272  70.8397 15.27591781171713","mean_motion":15.27591781,"eccentricity":0.000169,"inclination_deg":43.0026,"raan_deg":137.9258,"arg_perigee_deg":289.2272,"mean_anomaly_deg":70.8397,"bstar":-0.00017664,"rev_number":17171,"period_min":94.266021715392,"perigee_km":481.85428522564,"apogee_km":484.17335420271,"semimajor_km":6861.1508197142,"source":"CELESTRAK","updated_at":"2026-05-25T13:38:17.965512Z"}}